| time (UTC) | temp F | wind direction | speed MPH | gust MPH | rain 1hr in | rain 24hr in | rain mn in | humidity % | barometer mb |
| 20260510044234 | 59 | 173 | 1.0 | 4.0 | 0.00 | 0.00 | 0.00 | 43 | 1009.9 |
| 20260510043728 | 59 | 36 | 0.0 | 0.0 | 0.00 | 0.00 | 0.00 | 44 | 1009.9 |
| 20260510043222 | 59 | 83 | 0.0 | 2.0 | 0.00 | 0.00 | 0.00 | 43 | 1009.7 |
| 20260510042716 | 60 | 83 | 1.0 | 6.0 | 0.00 | 0.00 | 0.00 | 43 | 1009.5 |
| 20260510042210 | 60 | 102 | 1.0 | 6.0 | 0.00 | 0.00 | 0.00 | 42 | 1009.3 |
| 20260510041705 | 60 | 82 | 2.0 | 7.0 | 0.00 | 0.00 | 0.00 | 42 | 1009.2 |
| 20260510041200 | 60 | 92 | 3.0 | 9.0 | 0.00 | 0.00 | 0.00 | 41 | 1009.1 |
| 20260510040659 | 61 | 67 | 4.0 | 10.0 | 0.00 | 0.00 | 0.00 | 39 | 1009.0 |
| 20260510040158 | 61 | 111 | 4.0 | 10.0 | 0.00 | 0.00 | 0.00 | 39 | 1008.7 |
| 20260510035657 | 62 | 35 | 3.0 | 10.0 | 0.00 | 0.00 | 0.00 | 41 | 1008.7 |
| 20260510035158 | 63 | 85 | 2.0 | 9.0 | 0.00 | 0.00 | 0.00 | 43 | 1008.7 |
| 20260510034156 | 64 | 298 | 0.0 | 2.0 | 0.00 | 0.00 | 0.00 | 43 | 1008.3 |
| 20260510033152 | 64 | 298 | 1.0 | 4.0 | 0.00 | 0.00 | 0.00 | 42 | 1008.4 |
| 20260510032652 | 64 | 298 | 1.0 | 3.0 | 0.00 | 0.00 | 0.00 | 41 | 1008.2 |
| 20260510032154 | 64 | 298 | 2.0 | 4.0 | 0.00 | 0.00 | 0.00 | 41 | 1008.1 |
| 20260510031650 | 64 | 298 | 2.0 | 5.0 | 0.00 | 0.00 | 0.00 | 40 | 1008.1 |
| 20260510031150 | 65 | 339 | 1.0 | 5.0 | 0.00 | 0.00 | 0.00 | 40 | 1007.9 |
| 20260510030654 | 65 | 355 | 1.0 | 4.0 | 0.00 | 0.00 | 0.00 | 40 | 1007.9 |
| 20260510025653 | 65 | 321 | 3.0 | 8.0 | 0.00 | 0.00 | 0.00 | 39 | 1007.9 |
| 20260510025151 | 65 | 244 | 3.0 | 8.0 | 0.00 | 0.00 | 0.00 | 38 | 1007.9 |
| 20260510024651 | 65 | 292 | 3.0 | 6.0 | 0.00 | 0.00 | 0.00 | 38 | 1007.8 |
| 20260510024151 | 65 | 294 | 3.0 | 5.0 | 0.00 | 0.00 | 0.00 | 38 | 1007.8 |
| 20260510023652 | 65 | 286 | 3.0 | 6.0 | 0.00 | 0.00 | 0.00 | 38 | 1007.7 |
| 20260510023151 | 65 | 291 | 3.0 | 6.0 | 0.00 | 0.00 | 0.00 | 38 | 1007.6 |
| 20260510022651 | 65 | 284 | 2.0 | 6.0 | 0.00 | 0.00 | 0.00 | 37 | 1007.6 |
| 20260510022151 | 65 | 283 | 2.0 | 6.0 | 0.00 | 0.00 | 0.00 | 37 | 1007.6 |
| 20260510021652 | 66 | 300 | 2.0 | 5.0 | 0.00 | 0.00 | 0.00 | 37 | 1007.5 |
| 20260510020647 | 66 | 288 | 3.0 | 6.0 | 0.00 | 0.00 | 0.00 | 36 | 1007.4 |
| 20260510020147 | 66 | 311 | 3.0 | 6.0 | 0.00 | 0.00 | 0.00 | 36 | 1007.3 |
| 20260510015647 | 66 | 282 | 3.0 | 7.0 | 0.00 | 0.00 | 0.00 | 35 | 1007.1 |
| 20260510015146 | 67 | 304 | 3.0 | 7.0 | 0.00 | 0.00 | 0.00 | 34 | 1007.1 |
| 20260510013647 | 67 | 287 | 3.0 | 8.0 | 0.00 | 0.00 | 0.00 | 34 | 1006.9 |
| 20260510013147 | 67 | 273 | 3.0 | 9.0 | 0.00 | 0.00 | 0.00 | 33 | 1006.7 |
| 20260510011642 | 68 | 294 | 2.0 | 6.0 | 0.00 | 0.00 | 0.00 | 32 | 1006.5 |
| 20260510010642 | 68 | 284 | 3.0 | 7.0 | 0.00 | 0.00 | 0.00 | 32 | 1006.3 |
| 20260510010144 | 68 | 314 | 3.0 | 10.0 | 0.00 | 0.00 | 0.00 | 31 | 1006.1 |
| 20260510005644 | 69 | 343 | 3.0 | 10.0 | 0.00 | 0.00 | 0.00 | 30 | 1006.1 |
| 20260510005143 | 69 | 325 | 2.0 | 7.0 | 0.00 | 0.00 | 0.00 | 30 | 1006.0 |
| 20260510004642 | 69 | 328 | 2.0 | 7.0 | 0.00 | 0.00 | 0.00 | 30 | 1005.9 |
| 20260510003638 | 70 | 309 | 5.0 | 10.0 | 0.00 | 0.00 | 0.00 | 28 | 1005.7 |
| 20260510002639 | 70 | 282 | 7.0 | 14.0 | 0.00 | 0.00 | 0.00 | 27 | 1005.7 |
| 20260510002139 | 70 | 287 | 7.0 | 14.0 | 0.00 | 0.00 | 0.00 | 26 | 1005.6 |
| 20260510001639 | 71 | 296 | 7.0 | 12.0 | 0.00 | 0.00 | 0.00 | 25 | 1005.5 |
| 20260510001139 | 71 | 300 | 7.0 | 14.0 | 0.00 | 0.00 | 0.00 | 25 | 1005.3 |
| 20260510000139 | 71 | 277 | 7.0 | 14.0 | 0.00 | 0.00 | 0.00 | 24 | 1005.1 |
| 20260509235639 | 72 | 284 | 6.0 | 12.0 | 0.00 | 0.00 | 0.00 | 25 | 1005.1 |
| 20260509235141 | 72 | 323 | 6.0 | 13.0 | 0.00 | 0.00 | 0.00 | 25 | 1005.1 |
| 20260509234638 | 72 | 284 | 7.0 | 14.0 | 0.00 | 0.00 | 0.00 | 25 | 1005.1 |
| 20260509234140 | 72 | 279 | 6.0 | 14.0 | 0.00 | 0.00 | 0.00 | 24 | 1005.1 |
| 20260509233639 | 72 | 295 | 6.0 | 13.0 | 0.00 | 0.00 | 0.00 | 24 | 1004.9 |
| 20260509232640 | 72 | 302 | 6.0 | 14.0 | 0.00 | 0.00 | 0.00 | 24 | 1004.9 |
| 20260509232139 | 73 | 279 | 7.0 | 15.0 | 0.00 | 0.00 | 0.00 | 23 | 1004.8 |
| 20260509231138 | 73 | 286 | 8.0 | 17.0 | 0.00 | 0.00 | 0.00 | 23 | 1004.9 |
| 20260509230639 | 73 | 304 | 7.0 | 17.0 | 0.00 | 0.00 | 0.00 | 24 | 1004.8 |
| 20260509230139 | 74 | 318 | 6.0 | 12.0 | 0.00 | 0.00 | 0.00 | 24 | 1004.7 |
| 20260509225640 | 74 | 286 | 5.0 | 12.0 | 0.00 | 0.00 | 0.00 | 28 | 1004.7 |
| 20260509224639 | 74 | 238 | 6.0 | 17.0 | 0.00 | 0.00 | 0.00 | 28 | 1004.5 |
| 20260509224141 | 74 | 269 | 7.0 | 17.0 | 0.00 | 0.00 | 0.00 | 27 | 1004.5 |
| 20260509223142 | 75 | 292 | 7.0 | 14.0 | 0.00 | 0.00 | 0.00 | 27 | 1004.5 |
| 20260509222637 | 75 | 275 | 8.0 | 17.0 | 0.00 | 0.00 | 0.00 | 27 | 1004.4 |
| 20260509222133 | 75 | 253 | 8.0 | 17.0 | 0.00 | 0.00 | 0.00 | 26 | 1004.4 |
| 20260509221633 | 75 | 308 | 7.0 | 12.0 | 0.00 | 0.00 | 0.00 | 27 | 1004.5 |
| 20260509221132 | 75 | 289 | 7.0 | 17.0 | 0.00 | 0.00 | 0.00 | 26 | 1004.5 |
| 20260509220132 | 75 | 257 | 7.0 | 14.0 | 0.00 | 0.00 | 0.00 | 26 | 1004.4 |
| 20260509215632 | 75 | 250 | 5.0 | 14.0 | 0.00 | 0.00 | 0.00 | 25 | 1004.3 |
| 20260509215130 | 75 | 261 | 6.0 | 16.0 | 0.00 | 0.00 | 0.00 | 26 | 1004.3 |
| 20260509214632 | 75 | 275 | 7.0 | 17.0 | 0.00 | 0.00 | 0.00 | 26 | 1004.3 |
| 20260509214131 | 76 | 282 | 7.0 | 20.0 | 0.00 | 0.00 | 0.00 | 25 | 1004.2 |
| 20260509213630 | 76 | 304 | 7.0 | 20.0 | 0.00 | 0.00 | 0.00 | 25 | 1004.2 |
| 20260509212632 | 75 | 245 | 5.0 | 11.0 | 0.00 | 0.00 | 0.00 | 30 | 1004.2 |
| 20260509211631 | 74 | 288 | 8.0 | 14.0 | 0.00 | 0.00 | 0.00 | 26 | 1004.2 |
| 20260509211132 | 74 | 281 | 8.0 | 17.0 | 0.00 | 0.00 | 0.00 | 26 | 1004.2 |
| 20260509210630 | 75 | 297 | 7.0 | 17.0 | 0.00 | 0.00 | 0.00 | 25 | 1004.2 |
| 20260509210132 | 75 | 283 | 7.0 | 15.0 | 0.00 | 0.00 | 0.00 | 26 | 1004.1 |
| 20260509205626 | 76 | 292 | 8.0 | 14.0 | 0.00 | 0.00 | 0.00 | 28 | 1004.1 |
| 20260509205128 | 77 | 296 | 8.0 | 18.0 | 0.00 | 0.00 | 0.00 | 29 | 1004.2 |
| 20260509204126 | 76 | 0 | 8.0 | 15.0 | 0.00 | 0.00 | 0.00 | 29 | 1004.2 |
| 20260509203626 | 75 | 0 | 8.0 | 15.0 | 0.00 | 0.00 | 0.00 | 29 | 1004.2 |
| 20260509203124 | 74 | 0 | 8.0 | 15.0 | 0.00 | 0.00 | 0.00 | 28 | 1004.2 |
| 20260509202622 | 75 | 0 | 8.0 | 18.0 | 0.00 | 0.00 | 0.00 | 28 | 1004.3 |
| 20260509202123 | 75 | 0 | 9.0 | 18.0 | 0.00 | 0.00 | 0.00 | 29 | 1004.3 |
| 20260509201624 | 75 | 0 | 9.0 | 15.0 | 0.00 | 0.00 | 0.00 | 28 | 1004.3 |
| 20260509201124 | 75 | 0 | 9.0 | 17.0 | 0.00 | 0.00 | 0.00 | 29 | 1004.2 |
| 20260509200621 | 75 | 0 | 8.0 | 17.0 | 0.00 | 0.00 | 0.00 | 28 | 1004.3 |
| 20260509200120 | 74 | 0 | 8.0 | 17.0 | 0.00 | 0.00 | 0.00 | 30 | 1004.2 |
| 20260509195121 | 76 | 0 | 9.0 | 19.0 | 0.00 | 0.00 | 0.00 | 28 | 1004.3 |
| 20260509194621 | 76 | 282 | 9.0 | 19.0 | 0.00 | 0.00 | 0.00 | 32 | 1004.2 |
| 20260509194121 | 75 | 282 | 9.0 | 19.0 | 0.00 | 0.00 | 0.00 | 30 | 1004.3 |
| 20260509193615 | 75 | 0 | 8.0 | 19.0 | 0.00 | 0.00 | 0.00 | 33 | 1004.3 |
| 20260509192109 | 75 | 0 | 6.0 | 15.0 | 0.00 | 0.00 | 0.00 | 34 | 1004.2 |
| 20260509191610 | 74 | 0 | 7.0 | 15.0 | 0.00 | 0.00 | 0.00 | 34 | 1004.3 |
| 20260509191110 | 75 | 286 | 8.0 | 16.0 | 0.00 | 0.00 | 0.00 | 33 | 1004.2 |
| 20260509190609 | 75 | 281 | 7.0 | 16.0 | 0.00 | 0.00 | 0.00 | 33 | 1004.3 |
| 20260509185608 | 75 | 265 | 6.0 | 14.0 | 0.00 | 0.00 | 0.00 | 36 | 1004.4 |
| 20260509185108 | 74 | 0 | 6.0 | 17.0 | 0.00 | 0.00 | 0.00 | 36 | 1004.3 |
| 20260509184609 | 76 | 0 | 5.0 | 17.0 | 0.00 | 0.00 | 0.00 | 36 | 1004.2 |
| 20260509183608 | 75 | 0 | 6.0 | 13.0 | 0.00 | 0.01 | 0.00 | 38 | 1004.3 |
| 20260509182608 | 73 | 0 | 6.0 | 14.0 | 0.00 | 0.02 | 0.00 | 40 | 1004.2 |
| 20260509182109 | 74 | 0 | 5.0 | 14.0 | 0.00 | 0.03 | 0.00 | 44 | 1004.2 |
| 20260509181609 | 73 | 0 | 6.0 | 12.0 | 0.00 | 0.04 | 0.00 | 46 | 1004.2 |
| 20260509180602 | 73 | 0 | 7.0 | 24.0 | 0.00 | 0.05 | 0.00 | 46 | 1004.1 |
| 20260509180055 | 72 | 0 | 7.0 | 24.0 | 0.00 | 0.06 | 0.00 | 47 | 1004.3 |
| 20260509175554 | 72 | 0 | 6.0 | 13.0 | 0.00 | 0.06 | 0.00 | 47 | 1004.3 |
| 20260509175052 | 73 | 0 | 5.0 | 16.0 | 0.00 | 0.07 | 0.00 | 50 | 1004.4 |
| 20260509174556 | 72 | 0 | 6.0 | 16.0 | 0.00 | 0.07 | 0.00 | 48 | 1004.5 |
| 20260509173552 | 71 | 0 | 5.0 | 12.0 | 0.00 | 0.08 | 0.00 | 50 | 1004.6 |
| 20260509172548 | 71 | 0 | 5.0 | 15.0 | 0.00 | 0.10 | 0.00 | 50 | 1004.7 |
| 20260509172049 | 71 | 0 | 6.0 | 15.0 | 0.00 | 0.11 | 0.00 | 49 | 1004.6 |
| 20260509171550 | 71 | 0 | 5.0 | 15.0 | 0.00 | 0.12 | 0.00 | 50 | 1004.6 |
| 20260509170550 | 71 | 0 | 5.0 | 13.0 | 0.00 | 0.14 | 0.00 | 50 | 1004.7 |
| 20260509170048 | 70 | 0 | 6.0 | 14.0 | 0.00 | 0.14 | 0.00 | 49 | 1004.7 |
| 20260509165546 | 70 | 0 | 6.0 | 14.0 | 0.00 | 0.15 | 0.00 | 48 | 1004.7 |
| 20260509165046 | 70 | 0 | 4.0 | 12.0 | 0.00 | 0.15 | 0.00 | 46 | 1004.5 |
| 20260509164548 | 71 | 0 | 4.0 | 14.0 | 0.00 | 0.15 | 0.00 | 49 | 1004.4 |
| 20260509163547 | 69 | 0 | 5.0 | 13.0 | 0.00 | 0.15 | 0.00 | 48 | 1004.3 |
| 20260509163040 | 69 | 0 | 5.0 | 17.0 | 0.00 | 0.15 | 0.00 | 47 | 1004.1 |
| 20260509162533 | 69 | 0 | 4.0 | 17.0 | 0.00 | 0.15 | 0.00 | 50 | 1004.2 |
| 20260509162027 | 68 | 0 | 4.0 | 12.0 | 0.00 | 0.15 | 0.00 | 51 | 1004.3 |
| 20260509161521 | 68 | 0 | 4.0 | 12.0 | 0.00 | 0.15 | 0.00 | 52 | 1004.3 |
| 20260509160509 | 67 | 0 | 5.0 | 13.0 | 0.00 | 0.15 | 0.00 | 52 | 1004.4 |
| 20260509160003 | 67 | 0 | 5.0 | 12.0 | 0.00 | 0.15 | 0.00 | 54 | 1004.6 |
| 20260509155457 | 66 | 0 | 4.0 | 12.0 | 0.00 | 0.15 | 0.00 | 56 | 1004.6 |
| 20260509154950 | 66 | 0 | 3.0 | 10.0 | 0.00 | 0.15 | 0.00 | 56 | 1004.5 |
| 20260509154444 | 66 | 0 | 2.0 | 9.0 | 0.00 | 0.15 | 0.00 | 57 | 1004.7 |
| 20260509153939 | 66 | 0 | 3.0 | 12.0 | 0.00 | 0.15 | 0.00 | 61 | 1004.8 |
| 20260509153433 | 65 | 0 | 4.0 | 12.0 | 0.00 | 0.15 | 0.00 | 60 | 1004.8 |
| 20260509152927 | 65 | 0 | 4.0 | 14.0 | 0.00 | 0.15 | 0.00 | 61 | 1004.9 |
| 20260509152421 | 64 | 0 | 5.0 | 14.0 | 0.00 | 0.15 | 0.00 | 61 | 1005.0 |
| 20260509151409 | 63 | 0 | 5.0 | 12.0 | 0.00 | 0.15 | 0.00 | 60 | 1005.3 |
| 20260509150903 | 63 | 0 | 6.0 | 15.0 | 0.00 | 0.15 | 0.00 | 60 | 1005.3 |
| 20260509145858 | 64 | 0 | 5.0 | 15.0 | 0.00 | 0.15 | 0.00 | 60 | 1005.1 |
| 20260509145357 | 64 | 0 | 4.0 | 12.0 | 0.00 | 0.15 | 0.00 | 61 | 1005.0 |
| 20260509144857 | 64 | 0 | 4.0 | 12.0 | 0.00 | 0.15 | 0.00 | 61 | 1004.8 |
| 20260509144357 | 64 | 0 | 3.0 | 9.0 | 0.00 | 0.15 | 0.00 | 61 | 1004.8 |
| 20260509143856 | 63 | 0 | 4.0 | 11.0 | 0.00 | 0.15 | 0.00 | 63 | 1004.8 |
| 20260509143400 | 63 | 0 | 5.0 | 12.0 | 0.00 | 0.15 | 0.00 | 61 | 1004.8 |
| 20260509142356 | 62 | 0 | 5.0 | 12.0 | 0.00 | 0.15 | 0.00 | 64 | 1004.7 |
| 20260509141854 | 62 | 0 | 4.0 | 10.0 | 0.00 | 0.15 | 0.00 | 64 | 1004.8 |
| 20260509141354 | 62 | 0 | 3.0 | 11.0 | 0.00 | 0.15 | 0.00 | 66 | 1004.7 |
| 20260509140855 | 61 | 0 | 3.0 | 11.0 | 0.00 | 0.15 | 0.00 | 66 | 1004.8 |
| 20260509140355 | 61 | 0 | 2.0 | 8.0 | 0.00 | 0.15 | 0.00 | 68 | 1004.7 |
| 20260509135853 | 60 | 0 | 3.0 | 9.0 | 0.00 | 0.15 | 0.00 | 68 | 1004.6 |
| 20260509135353 | 60 | 0 | 3.0 | 9.0 | 0.00 | 0.15 | 0.00 | 69 | 1004.6 |
| 20260509134853 | 59 | 0 | 2.0 | 9.0 | 0.00 | 0.15 | 0.00 | 70 | 1004.6 |
| 20260509134352 | 59 | 0 | 2.0 | 9.0 | 0.00 | 0.15 | 0.00 | 71 | 1004.6 |
| 20260509133847 | 58 | 0 | 2.0 | 8.0 | 0.00 | 0.15 | 0.00 | 74 | 1004.6 |
| 20260509133340 | 57 | 0 | 2.0 | 8.0 | 0.00 | 0.15 | 0.00 | 75 | 1004.6 |
| 20260509132835 | 57 | 0 | 2.0 | 6.0 | 0.00 | 0.15 | 0.00 | 79 | 1004.6 |
| 20260509132329 | 56 | 0 | 3.0 | 9.0 | 0.00 | 0.15 | 0.00 | 81 | 1004.7 |
| 20260509131823 | 56 | 0 | 3.0 | 6.0 | 0.00 | 0.15 | 0.00 | 81 | 1004.7 |
| 20260509131316 | 55 | 0 | 3.0 | 8.0 | 0.00 | 0.15 | 0.00 | 81 | 1004.7 |
| 20260509130810 | 55 | 0 | 3.0 | 9.0 | 0.00 | 0.15 | 0.00 | 81 | 1004.8 |
| 20260509130304 | 54 | 0 | 2.0 | 9.0 | 0.00 | 0.15 | 0.00 | 81 | 1004.7 |
| 20260509125759 | 54 | 0 | 2.0 | 6.0 | 0.00 | 0.15 | 0.00 | 81 | 1004.7 |
| 20260509125253 | 54 | 0 | 3.0 | 9.0 | 0.00 | 0.15 | 0.00 | 81 | 1004.8 |
| 20260509124240 | 54 | 0 | 2.0 | 6.0 | 0.00 | 0.15 | 0.00 | 81 | 1004.7 |
| 20260509123735 | 54 | 0 | 2.0 | 9.0 | 0.00 | 0.15 | 0.00 | 81 | 1004.7 |
| 20260509123229 | 54 | 0 | 2.0 | 9.0 | 0.00 | 0.15 | 0.00 | 81 | 1004.8 |
| 20260509122722 | 54 | 0 | 2.0 | 9.0 | 0.00 | 0.15 | 0.00 | 81 | 1004.8 |
| 20260509121711 | 54 | 0 | 2.0 | 8.0 | 0.00 | 0.15 | 0.00 | 81 | 1004.9 |
| 20260509121205 | 54 | 0 | 3.0 | 8.0 | 0.00 | 0.15 | 0.00 | 81 | 1004.9 |
| 20260509120658 | 54 | 0 | 3.0 | 8.0 | 0.00 | 0.16 | 0.00 | 81 | 1005.0 |
| 20260509120152 | 54 | 0 | 2.0 | 6.0 | 0.00 | 0.16 | 0.00 | 81 | 1005.0 |
| 20260509115648 | 54 | 0 | 1.0 | 5.0 | 0.00 | 0.16 | 0.00 | 81 | 1004.8 |
| 20260509115141 | 54 | 0 | 1.0 | 5.0 | 0.00 | 0.16 | 0.00 | 81 | 1004.8 |
| 20260509114635 | 53 | 0 | 1.0 | 5.0 | 0.00 | 0.16 | 0.00 | 81 | 1004.8 |
| 20260509114129 | 53 | 0 | 2.0 | 6.0 | 0.00 | 0.16 | 0.00 | 81 | 1004.9 |
| 20260509113623 | 53 | 0 | 2.0 | 6.0 | 0.00 | 0.16 | 0.00 | 81 | 1004.9 |
| 20260509113116 | 53 | 0 | 2.0 | 5.0 | 0.00 | 0.16 | 0.00 | 81 | 1004.9 |
| 20260509112611 | 53 | 0 | 2.0 | 5.0 | 0.00 | 0.16 | 0.00 | 81 | 1004.9 |
| 20260509112104 | 53 | 0 | 2.0 | 6.0 | 0.00 | 0.16 | 0.00 | 81 | 1004.8 |
| 20260509111558 | 53 | 0 | 2.0 | 6.0 | 0.00 | 0.16 | 0.00 | 80 | 1004.8 |
| 20260509111053 | 53 | 0 | 2.0 | 5.0 | 0.00 | 0.16 | 0.00 | 80 | 1004.8 |
| 20260509110547 | 53 | 0 | 2.0 | 8.0 | 0.00 | 0.16 | 0.00 | 80 | 1004.7 |
| 20260509110041 | 53 | 0 | 3.0 | 8.0 | 0.00 | 0.16 | 0.00 | 80 | 1004.7 |
| 20260509105535 | 53 | 0 | 3.0 | 6.0 | 0.00 | 0.16 | 0.00 | 80 | 1004.7 |
| 20260509105029 | 53 | 0 | 3.0 | 8.0 | 0.00 | 0.16 | 0.00 | 80 | 1004.6 |
| 20260509104523 | 53 | 0 | 3.0 | 8.0 | 0.00 | 0.16 | 0.00 | 80 | 1004.6 |
| 20260509104017 | 53 | 0 | 4.0 | 12.0 | 0.00 | 0.16 | 0.00 | 81 | 1004.6 |
| 20260509103511 | 53 | 0 | 3.0 | 12.0 | 0.00 | 0.16 | 0.00 | 80 | 1004.6 |
| 20260509103005 | 53 | 0 | 3.0 | 11.0 | 0.00 | 0.16 | 0.00 | 80 | 1004.7 |
| 20260509102459 | 53 | 0 | 3.0 | 11.0 | 0.00 | 0.16 | 0.00 | 80 | 1004.7 |
| 20260509101953 | 53 | 0 | 3.0 | 8.0 | 0.00 | 0.16 | 0.00 | 80 | 1004.7 |
| 20260509101447 | 53 | 0 | 2.0 | 8.0 | 0.00 | 0.16 | 0.00 | 80 | 1004.6 |
| 20260509100940 | 53 | 0 | 2.0 | 8.0 | 0.00 | 0.16 | 0.00 | 80 | 1004.5 |
| 20260509100435 | 52 | 0 | 2.0 | 4.0 | 0.00 | 0.16 | 0.00 | 80 | 1004.3 |
| 20260509095929 | 52 | 0 | 2.0 | 5.0 | 0.00 | 0.16 | 0.00 | 79 | 1004.4 |
| 20260509095423 | 52 | 0 | 1.0 | 5.0 | 0.00 | 0.16 | 0.00 | 79 | 1004.3 |
| 20260509094917 | 52 | 0 | 1.0 | 3.0 | 0.00 | 0.16 | 0.00 | 79 | 1004.2 |
| 20260509093904 | 51 | 0 | 1.0 | 3.0 | 0.00 | 0.16 | 0.00 | 78 | 1004.3 |
| 20260509093359 | 51 | 0 | 1.0 | 4.0 | 0.00 | 0.16 | 0.00 | 78 | 1004.4 |
| 20260509092853 | 51 | 0 | 1.0 | 4.0 | 0.00 | 0.16 | 0.00 | 77 | 1004.5 |
| 20260509092347 | 51 | 0 | 1.0 | 3.0 | 0.00 | 0.16 | 0.00 | 77 | 1004.7 |
| 20260509091841 | 51 | 0 | 1.0 | 3.0 | 0.00 | 0.16 | 0.00 | 77 | 1004.7 |
| 20260509091334 | 51 | 0 | 1.0 | 3.0 | 0.00 | 0.16 | 0.00 | 77 | 1004.6 |
| 20260509090323 | 51 | 0 | 1.0 | 3.0 | 0.00 | 0.16 | 0.00 | 76 | 1004.8 |
| 20260509085817 | 51 | 0 | 1.0 | 4.0 | 0.00 | 0.16 | 0.00 | 76 | 1004.7 |
| 20260509085311 | 51 | 0 | 0.0 | 4.0 | 0.00 | 0.16 | 0.00 | 76 | 1004.8 |
| 20260509084805 | 51 | 0 | 1.0 | 5.0 | 0.00 | 0.16 | 0.00 | 76 | 1004.7 |
| 20260509084258 | 51 | 0 | 1.0 | 5.0 | 0.00 | 0.16 | 0.00 | 76 | 1004.8 |
| 20260509083247 | 51 | 0 | 1.0 | 4.0 | 0.00 | 0.16 | 0.00 | 75 | 1004.7 |
| 20260509082235 | 50 | 0 | 1.0 | 3.0 | 0.00 | 0.20 | 0.00 | 75 | 1004.6 |
| 20260509081223 | 50 | 0 | 0.0 | 3.0 | 0.00 | 0.20 | 0.00 | 74 | 1004.5 |
| 20260509080723 | 50 | 0 | 0.0 | 3.0 | 0.00 | 0.20 | 0.00 | 74 | 1004.5 |
| 20260509080223 | 50 | 0 | 0.0 | 2.0 | 0.00 | 0.20 | 0.00 | 74 | 1004.5 |
| 20260509075725 | 50 | 0 | 0.0 | 0.0 | 0.00 | 0.20 | 0.00 | 74 | 1004.4 |
| 20260509074722 | 51 | 0 | 0.0 | 3.0 | 0.00 | 0.20 | 0.00 | 74 | 1004.6 |
| 20260509074220 | 51 | 0 | 0.0 | 3.0 | 0.00 | 0.20 | 0.00 | 74 | 1004.6 |
| 20260509073721 | 51 | 0 | 0.0 | 1.0 | 0.00 | 0.20 | 0.00 | 74 | 1004.8 |
| 20260509073221 | 51 | 0 | 0.0 | 1.0 | 0.00 | 0.21 | 0.00 | 74 | 1004.8 |
| 20260509072217 | 51 | 0 | 1.0 | 3.0 | 0.00 | 0.22 | 0.00 | 74 | 1005.0 |
| 20260509071717 | 51 | 0 | 1.0 | 3.0 | 0.00 | 0.22 | 0.00 | 74 | 1005.0 |
| 20260509071216 | 51 | 0 | 0.0 | 2.0 | 0.00 | 0.22 | 0.00 | 74 | 1005.0 |
| 20260509070715 | 51 | 0 | 0.0 | 4.0 | 0.00 | 0.22 | 0.00 | 74 | 1005.1 |
| 20260509070212 | 51 | 0 | 2.0 | 6.0 | 0.00 | 0.22 | 0.00 | 73 | 1005.1 |
| 20260509065712 | 51 | 0 | 3.0 | 9.0 | 0.00 | 0.22 | 0.00 | 73 | 1005.3 |
| 20260509065213 | 51 | 0 | 3.0 | 9.0 | 0.00 | 0.22 | 0.00 | 73 | 1005.3 |
| 20260509064714 | 51 | 0 | 2.0 | 8.0 | 0.00 | 0.22 | 0.00 | 73 | 1005.4 |
| 20260509064215 | 51 | 0 | 2.0 | 5.0 | 0.00 | 0.22 | 0.00 | 73 | 1005.4 |
| 20260509063710 | 51 | 0 | 3.0 | 8.0 | 0.00 | 0.22 | 0.00 | 73 | 1005.5 |
| 20260509063204 | 51 | 0 | 2.0 | 8.0 | 0.00 | 0.22 | 0.00 | 73 | 1005.5 |
| 20260509062658 | 51 | 0 | 2.0 | 6.0 | 0.00 | 0.22 | 0.00 | 73 | 1005.5 |
| 20260509062151 | 51 | 0 | 3.0 | 6.0 | 0.00 | 0.22 | 0.00 | 73 | 1005.4 |
| 20260509061139 | 51 | 0 | 3.0 | 9.0 | 0.00 | 0.22 | 0.00 | 72 | 1005.4 |
| 20260509060633 | 51 | 0 | 2.0 | 6.0 | 0.00 | 0.22 | 0.00 | 72 | 1005.4 |
| 20260509060127 | 51 | 0 | 1.0 | 5.0 | 0.00 | 0.22 | 0.00 | 72 | 1005.4 |
| 20260509055622 | 51 | 0 | 0.0 | 4.0 | 0.00 | 0.22 | 0.00 | 71 | 1005.5 |
| 20260509055115 | 51 | 0 | 0.0 | 0.0 | 0.00 | 0.22 | 0.00 | 71 | 1005.5 |
| 20260509054609 | 51 | 0 | 0.0 | 0.0 | 0.00 | 0.22 | 0.00 | 71 | 1005.6 |
| 20260509054103 | 52 | 0 | 0.0 | 0.0 | 0.00 | 0.22 | 0.00 | 71 | 1005.7 |
| 20260509053557 | 52 | 0 | 0.0 | 0.0 | 0.00 | 0.22 | 0.00 | 71 | 1005.8 |
| 20260509052545 | 52 | 0 | 0.0 | 0.0 | 0.00 | 0.22 | 0.00 | 71 | 1005.8 |
| 20260509052040 | 52 | 0 | 0.0 | 0.0 | 0.00 | 0.22 | 0.00 | 71 | 1005.7 |
| 20260509051030 | 52 | 0 | 0.0 | 0.0 | 0.00 | 0.22 | 0.00 | 70 | 1005.7 |
| 20260509050521 | 52 | 0 | 0.0 | 0.0 | 0.00 | 0.22 | 0.00 | 70 | 1005.7 |
| 20260509045003 | 52 | 0 | 0.0 | 0.0 | 0.00 | 0.22 | 0.22 | 70 | 1005.9 |
| 20260509044456 | 52 | 0 | 0.0 | 0.0 | 0.00 | 0.22 | 0.22 | 70 | 1005.9 |